Weather History for Alma, GA

Change the Weather History Date:

Saturday, February 23, 2013

  Actual Average Record
Temperature  
Mean Temperature 64 °F 56 °F  
Max Temperature 70 °F 67 °F 82 °F (1962)
Min Temperature 58 °F 44 °F 21 °F (1963)
Degree Days  
Heating Degree Days 1 10  
Month to date heating degree days 272 266  
Since 1 July heating degree days 1123 1355  
Cooling Degree Days 0 0  
Month to date cooling degree days 3 0  
Year to date cooling degree days 27 5  
Growing Degree Days 13 (Base 50)    
Moisture  
Dew Point 61 °F    
Average Humidity 92    
Maximum Humidity 100    
Minimum Humidity 84    
Precipitation  
Precipitation 2.30 in 0.15 in 2.30 in (2013)
Month to date precipitation 6.72 3.11  
Year to date precipitation 7.29 7.37  
Snow  
Snow 0.00 in 0.00 in 0.00 in ()
Month to date snowfall 0.0 0.0  
Since 1 July snowfall 0.0 0.1  
Snow Depth 0.00 in    
Sea Level Pressure  
Sea Level Pressure 29.92 in    
Wind  
Wind Speed 6 mph (SSW)    
Max Wind Speed 17 mph    
Max Gust Speed 23 mph    
Visibility 5 miles    
Events Rain    
T = Trace of Precipitation, MM = Missing Value Source: NWS Daily Summary

Daily Weather History Graph

Daily Weather History Graph

Search for Another Location

Airport:

Trip Planner

Search our weather history database for the weather conditions in past years. The results will help you decide how hot, cold, wet, or windy it might be!

Date:

Astronomy

Feb. 23, 2013 Rise Set
Actual Time 7:03 AM EST 6:23 PM EST
Civil Twilight 6:38 AM EST 6:48 PM EST
Nautical Twilight 6:10 AM EST 7:16 PM EST
Astronomical Twilight 5:42 AM EST 7:44 PM EST
Moon 4:36 PM EST (2/23) 5:20 AM EST (2/23)
Length of Visible Light 12h 09m
Length of Day
11h 20m
Waxing Gibbous, 95% of the Moon is Illuminated
Feb 23
Waxing Gibbous
Feb 25
Full
Mar 4
Last Quarter
Mar 11
New
Mar 19
First Quarter

Hourly Weather History & Observations

Time (EST) Temp. Dew Point Humidity Pressure Visibility Wind Dir Wind Speed Gust Speed Precip Events Conditions
12:18 AM 62.6 °F 62.6 °F 100% 30.01 in 2.0 mi Calm Calm - 0.05 in Rain Rain
12:30 AM 62.6 °F 62.6 °F 100% 30.00 in 1.5 mi Calm Calm - 0.10 in Rain Heavy Rain
12:53 AM 63.0 °F 62.1 °F 97% 29.99 in 1.8 mi Calm Calm - 0.15 in Rain Rain
1:11 AM 62.6 °F 62.6 °F 100% 30.00 in 2.5 mi Calm Calm - 0.07 in Rain Rain
1:23 AM 62.6 °F 60.8 °F 94% 29.98 in 4.0 mi NE 4.6 mph - 0.11 in Rain Rain
1:33 AM 62.6 °F 60.8 °F 94% 29.97 in 5.0 mi ENE 4.6 mph - 0.12 in Rain Light Rain
1:53 AM 62.1 °F 61.0 °F 96% 29.94 in 5.0 mi East 4.6 mph - 0.13 in Rain Light Rain
2:53 AM 63.0 °F 62.1 °F 97% 29.92 in 7.0 mi ESE 6.9 mph - 0.03 in Rain Light Rain
3:53 AM 63.0 °F 62.1 °F 97% 29.90 in 3.0 mi SE 4.6 mph - 0.11 in Rain Heavy Rain
4:32 AM 64.4 °F 62.6 °F 94% 29.91 in 4.0 mi SSE 8.1 mph - 0.10 in Rain Light Rain
4:42 AM 64.4 °F 62.6 °F 94% 29.91 in 5.0 mi SSE 6.9 mph - 0.12 in Rain Light Rain
4:53 AM 64.0 °F 62.1 °F 93% 29.90 in 4.0 mi SSE 9.2 mph - 0.14 in Rain Rain
5:53 AM 64.9 °F 63.0 °F 93% 29.89 in 9.0 mi South 6.9 mph - 0.00 in   Overcast
7:34 AM 66.2 °F 64.4 °F 94% 29.91 in 2.5 mi South 8.1 mph - 0.03 in Rain Light Rain
7:42 AM 66.2 °F 64.4 °F 94% 29.91 in 5.0 mi South 9.2 mph - 0.03 in   Overcast
7:53 AM 66.0 °F 64.0 °F 93% 29.90 in 6.0 mi South 9.2 mph - 0.03 in   Overcast
8:11 AM 66.2 °F 64.4 °F 94% 29.91 in 7.0 mi South 10.4 mph - N/A   Overcast
8:53 AM 68.0 °F 64.9 °F 90% 29.91 in 8.0 mi SSW 11.5 mph - N/A   Overcast
9:19 AM 68.0 °F 64.4 °F 88% 29.92 in 8.0 mi SSW 11.5 mph - N/A   Overcast
9:53 AM 69.1 °F 64.9 °F 87% 29.94 in 9.0 mi SW 10.4 mph 17.3 mph N/A   Overcast
10:30 AM 66.2 °F 62.6 °F 88% 29.96 in 9.0 mi NNW 9.2 mph 23.0 mph N/A   Overcast
10:49 AM 57.2 °F 55.4 °F 94% 29.96 in 9.0 mi NNW 6.9 mph - N/A   Overcast
10:53 AM 57.9 °F 55.0 °F 90% 29.96 in 9.0 mi North 4.6 mph - N/A   Overcast
11:06 AM 59.0 °F 55.4 °F 88% 29.96 in 4.0 mi Calm Calm - N/A   Overcast
11:23 AM 59.0 °F 55.4 °F 88% 29.97 in 1.8 mi Calm Calm - 0.02 in Rain Rain
11:31 AM 59.0 °F 57.2 °F 94% 29.97 in 3.0 mi Calm Calm - 0.02 in Rain Light Rain
11:38 AM 59.0 °F 57.2 °F 94% 29.96 in 4.0 mi Calm Calm - 0.03 in Rain Light Rain
11:53 AM 59.0 °F 57.0 °F 93% 29.97 in 5.0 mi Calm Calm - 0.04 in   Overcast
11:56 AM 60.8 °F 57.2 °F 88% 29.97 in 1.8 mi Calm Calm - 0.01 in Rain Rain
12:10 PM 60.8 °F 59.0 °F 94% 29.97 in 3.0 mi Calm Calm - 0.04 in Rain Light Rain
12:28 PM 60.8 °F 59.0 °F 94% 29.96 in 1.8 mi Calm Calm - 0.09 in Rain Heavy Rain
12:38 PM 60.8 °F 59.0 °F 94% 29.97 in 2.5 mi Calm Calm - 0.11 in Rain Light Rain
12:43 PM 60.8 °F 59.0 °F 94% 29.97 in 1.0 mi SW 4.6 mph - 0.18 in Rain Heavy Rain
12:47 PM 60.8 °F 59.0 °F 94% 29.97 in 0.8 mi Calm Calm - 0.21 in Rain Heavy Rain
12:53 PM 62.1 °F 60.1 °F 93% 29.96 in 1.0 mi Calm Calm - 0.22 in Rain Rain
1:26 PM 62.6 °F 60.8 °F 94% 29.95 in 2.0 mi SSW 4.6 mph - 0.11 in Rain Rain
1:45 PM 62.6 °F 62.6 °F 100% 29.92 in 6.0 mi South 3.5 mph - 0.14 in Rain Light Rain
1:53 PM 64.0 °F 62.1 °F 93% 29.91 in 5.0 mi SSW 3.5 mph - 0.15 in Rain Light Rain
2:53 PM 64.9 °F 62.1 °F 90% 29.88 in 3.0 mi WSW 5.8 mph - 0.07 in Rain Light Rain
3:26 PM 64.4 °F 62.6 °F 94% 29.87 in 2.5 mi SSW 5.8 mph - 0.04 in Rain Light Rain
3:35 PM 64.4 °F 62.6 °F 94% 29.84 in 3.0 mi SSE 11.5 mph - 0.06 in Rain Rain
3:53 PM 64.9 °F 63.0 °F 93% 29.87 in 6.0 mi WNW 6.9 mph - 0.09 in Rain Light Rain
4:01 PM 64.4 °F 62.6 °F 94% 29.87 in 5.0 mi West 4.6 mph - 0.01 in Rain Light Rain
4:53 PM 64.9 °F 63.0 °F 93% 29.83 in 6.0 mi South 3.5 mph - 0.04 in Rain Light Rain
5:08 PM 64.4 °F 62.6 °F 94% 29.85 in 2.5 mi WSW 5.8 mph - 0.04 in Rain Light Rain
5:15 PM 64.4 °F 62.6 °F 94% 29.85 in 1.0 mi West 4.6 mph - 0.08 in Rain Rain
5:28 PM 64.4 °F 62.6 °F 94% 29.86 in 0.8 mi Variable 5.8 mph - 0.24 in Rain Heavy Rain
5:53 PM 64.0 °F 61.0 °F 90% 29.88 in 0.8 mi WSW 6.9 mph - 0.60 in Rain Heavy Rain
6:04 PM 62.6 °F 60.8 °F 94% 29.89 in 1.5 mi SW 8.1 mph - 0.09 in Rain Rain
6:15 PM 64.4 °F 60.8 °F 88% 29.89 in 2.0 mi South 15.0 mph 19.6 mph 0.21 in Rain Heavy Rain
6:27 PM 64.4 °F 60.8 °F 88% 29.87 in 5.0 mi Variable 5.8 mph - 0.23 in Rain Rain
6:53 PM 63.0 °F 61.0 °F 93% 29.89 in 5.0 mi SSW 4.6 mph - 0.28 in Rain Light Rain
7:22 PM 62.6 °F 60.8 °F 94% 29.92 in 2.5 mi SSW 6.9 mph - 0.08 in Rain Rain
7:30 PM 62.6 °F 60.8 °F 94% 29.91 in 5.0 mi South 5.8 mph - 0.10 in Rain Rain
7:53 PM 63.0 °F 61.0 °F 93% 29.91 in 6.0 mi South 3.5 mph - 0.14 in Rain Light Rain
8:02 PM 62.6 °F 60.8 °F 94% 29.93 in 8.0 mi SW 3.5 mph - 0.00 in Rain Light Rain
8:28 PM 62.6 °F 60.8 °F 94% 29.92 in 8.0 mi Calm Calm - 0.01 in Rain Light Rain
8:53 PM 63.0 °F 61.0 °F 93% 29.90 in 8.0 mi SSE 4.6 mph - 0.02 in Rain Light Rain
10:53 PM 62.1 °F 60.1 °F 93% 29.83 in 10.0 mi SSE 6.9 mph - N/A   Scattered Clouds
11:13 PM 62.6 °F 60.8 °F 94% 29.86 in 10.0 mi SSW 4.6 mph - N/A   Mostly Cloudy
11:53 PM 62.1 °F 60.1 °F 93% 29.86 in 10.0 mi SW 3.5 mph - N/A   Partly Cloudy